Lid_Strength_Index
1 1 1 1 1 1 1 2 3 6 5 3 2 -0 -0 -1 0 -0 0 6 8 8 7 6 5 4 4 3 3 3 1 0 1 0 -0 -0 -1 -1
1 1 1 1 1 1 1 1 2 3 5 2 2 1 -0 -0 1 -0 1 5 8 8 8 7 6 5 5 5 5 4 3 2 2 1 1 0 -0 -0
1 1 1 1 1 1 1 1 2 2 4 2 1 0 0 1 0 -0 0 1 3 8 9 8 8 8 7 7 6 6 5 4 3 3 2 2 1 1
2 2 2 1 1 1 1 1 2 1 3 4 2 2 1 0 1 1 1 1 1 8 8 9 9 9 9 9 8 8 8 7 6 6 5 4 3 3
1 2 1 1 2 1 1 2 1 1 2 3 3 2 1 1 1 2 6 8 8 9 11 10 10 9 9 9 9 9 9 9 9 9 8 8 7 6
1 1 1 1 2 2 2 1 1 2 2 3 3 3 2 1 2 7 8 8 9 9 10 11 10 10 10 11 11 11 11 11 11 11 12 12 11 10
4 5 8 11 12 12 8 5 3 2 3 3 3 3 3 4 7 7 9 12 12 11 12 12 12 12 11 11 11 12 12 12 12 12 13 13 13 13
8 9 11 12 13 14 13 14 14 11 6 3 3 4 4 4 5 8 11 13 14 12 15 16 14 15 14 13 13 13 13 13 13 13 14 14 14 15
10 10 11 12 11 11 13 14 15 14 14 12 7 9 6 5 6 9 10 11 14 14 14 17 16 17 15 14 13 14 14 14 14 14 15 15 16 16
14 14 14 14 14 12 13 15 16 16 15 15 15 16 16 15 8 8 10 16 16 16 15 18 16 17 16 15 14 14 14 15 15 15 16 16 16 17
16 16 16 16 15 13 14 16 16 16 15 15 16 16 16 15 13 12 15 15 16 17 17 16 17 19 19 17 16 15 15 15 15 16 16 17 17 17
18 17 16 16 16 15 16 17 19 18 18 17 18 18 18 18 17 16 14 14 17 18 18 18 19 19 21 19 18 16 16 16 16 16 17 18 18 18
19 19 18 16 16 16 17 18 18 17 18 18 19 19 19 20 19 19 18 16 18 20 18 16 17 18 19 21 19 18 18 18 18 18 18 18 19 19
20 19 17 17 16 16 17 17 17 18 18 19 20 20 21 20 20 19 19 19 18 18 17 16 17 18 19 20 20 18 18 17 17 17 18 18 18 19
18 17 17 17 16 17 16 16 16 18 19 20 20 20 20 19 19 19 19 19 19 18 17 16 15 16 16 17 19 18 18 18 17 17 17 17 17 17
16 16 16 17 16 16 16 16 16 16 17 18 18 17 17 17 18 18 19 20 20 20 18 17 16 16 17 16 17 18 17 19 18 18 18 18 17 16
16 16 17 16 17 17 17 17 16 16 17 17 17 17 18 18 18 17 18 18 20 21 21 19 18 17 17 17 19 19 19 19 19 19 20 19 17 16
16 17 18 18 19 18 18 18 18 18 17 17 17 18 18 18 18 18 18 18 20 20 20 20 20 20 20 20 19 19 19 19 19 19 19 20 19 16
16 17 17 17 18 18 19 18 19 18 18 18 18 18 18 18 18 18 19 19 20 20 20 19 19 19 20 21 21 20 19 20 19 19 19 19 19 17
15 16 16 16 17 17 17 17 17 17 17 17 17 17 17 17 18 18 18 18 19 20 20 19 19 19 18 18 20 20 21 19 19 19 18 17 17 16
16 16 16 16 16 16 16 16 17 17 17 16 16 16 16 16 17 18 18 19 18 18 19 19 20 21 18 17 18 18 18 19 19 19 18 18 18 16
15 15 15 16 16 16 16 16 16 16 16 16 16 16 15 15 16 16 16 16 17 17 18 17 17 17 17 17 18 18 17 16 16 16 17 18 18 18
16 16 15 16 15 16 16 16 17 17 18 17 17 17 17 17 16 16 17 17 17 18 17 18 17 17 18 18 19 17 18 18 17 17 16 16 16 16